FW9049 Weather Reports


time (UTC)temp
F
wind
direction
speed
knots
gust
knots
rain 1hr
in
rain 24hr
in
rain mn
in
humidity
%
barometer
mb
20260503181536 78 345 2.6 4.3 0.00 0.00 0.00 49 1012.7
20260503181032 77 328 1.7 2.6 0.00 0.00 0.00 50 1012.9
20260503180529 76 329 0.9 1.7 0.00 0.00 0.00 51 1013.1
20260503180027 76 357 3.5 5.2 0.00 0.00 0.00 51 1013.1
20260503175524 75 347 2.6 4.3 0.00 0.00 0.00 53 1012.8
20260503175021 74 328 1.7 1.7 0.00 0.00 0.00 54 1013.2
20260503174518 73 336 0.9 1.7 0.00 0.00 0.00 54 1013.3
20260503174014 76 338 3.5 4.3 0.00 0.00 0.00 53 1013.1
20260503173509 73 350 0.9 0.9 0.00 0.00 0.00 55 1013.2
20260503173006 73 341 0.0 0.9 0.00 0.00 0.00 57 1013.2
20260503172504 74 337 1.7 1.7 0.00 0.00 0.00 56 1013.3
20260503172001 71 340 0.0 0.9 0.00 0.00 0.00 58 1013.1
20260503171457 70 351 1.7 2.6 0.00 0.00 0.00 58 1013.4
20260503170954 69 346 3.5 4.3 0.00 0.00 0.00 60 1013.4
20260503170450 69 330 0.9 0.9 0.00 0.00 0.00 60 1013.4
20260503150843 54 338 0.0 0.0 0.00 0.00 0.00 99 1013.8
20260503150339 54 338 0.0 0.0 0.00 0.00 0.00 99 1014.0
20260503140303 51 338 0.0 0.0 0.00 0.00 0.00 99 1013.9
20260503131233 48 338 0.0 0.0 0.00 0.00 0.00 99 1013.7
20260503130731 47 338 0.0 0.0 0.00 0.00 0.00 99 1013.9
20260503130227 48 338 0.0 0.0 0.00 0.00 0.00 99 1013.5
20260503120153 49 338 0.0 0.0 0.00 0.00 0.00 99 1013.6
20260503110621 50 338 0.0 0.0 0.00 0.00 0.00 99 1013.9
20260503110118 50 331 0.0 0.0 0.00 0.00 0.00 99 1014.0
20260503090508 52 339 0.0 0.0 0.00 0.00 0.00 99 1014.2
20260503081434 53 337 0.0 0.0 0.00 0.00 0.00 99 1014.2
20260503080932 54 337 0.0 0.0 0.00 0.00 0.00 99 1014.5
20260503080428 54 335 0.0 0.0 0.00 0.00 0.00 99 1014.0
20260503072904 54 340 0.0 0.0 0.00 0.00 0.00 98 1014.2
20260503072401 54 335 0.0 0.0 0.00 0.00 0.00 98 1014.3
20260503071858 55 336 0.0 0.0 0.00 0.00 0.00 97 1014.3
20260503071355 55 337 0.0 0.0 0.00 0.00 0.00 97 1014.2
20260503070851 55 333 0.0 0.0 0.00 0.00 0.00 97 1014.4
20260503070349 55 339 0.0 0.0 0.00 0.00 0.00 97 1014.0
20260503060314 57 336 0.0 0.0 0.00 0.01 0.01 92 1014.3
20260503054802 58 336 0.0 0.0 0.00 0.01 0.01 92 1014.6
20260503054258 58 334 0.0 0.9 0.00 0.01 0.01 92 1014.4
20260503053755 59 334 0.0 0.0 0.00 0.01 0.01 91 1014.1
20260503053249 59 330 0.0 0.9 0.00 0.01 0.01 91 1014.1
20260503052744 59 334 0.0 0.0 0.00 0.01 0.01 91 1014.0
20260503052242 59 335 0.0 0.0 0.00 0.01 0.01 90 1014.0
20260503051736 59 336 0.0 0.0 0.00 0.01 0.01 90 1013.9
20260503051234 59 342 0.0 0.9 0.00 0.01 0.01 89 1014.0
20260503050731 60 334 0.0 0.0 0.00 0.01 0.01 89 1013.9
20260503050227 60 336 0.0 0.0 0.00 0.01 0.01 88 1014.1
20260503045725 60 339 0.9 0.9 0.00 0.01 0.01 88 1014.0
20260503045222 60 343 0.9 0.9 0.00 0.01 0.01 88 1014.3
20260503044718 60 332 0.0 0.0 0.00 0.01 0.01 88 1014.2
20260503044216 60 341 0.9 0.9 0.00 0.01 0.01 87 1014.3
20260503043713 60 337 0.0 0.0 0.00 0.01 0.01 87 1014.3
20260503043210 61 338 0.0 0.0 0.00 0.01 0.01 86 1014.3
20260503042706 60 338 0.0 0.9 0.00 0.01 0.01 86 1014.4
20260503042203 61 338 0.0 0.0 0.00 0.01 0.01 85 1014.5
20260503041658 61 338 0.0 0.0 0.00 0.01 0.01 85 1014.5
20260503041156 61 339 0.0 0.0 0.00 0.01 0.01 84 1014.4
20260503040654 61 339 0.0 0.0 0.00 0.01 0.01 84 1014.2
20260503040151 62 340 0.0 0.0 0.00 0.01 0.01 83 1014.3
20260503035647 62 340 0.0 0.0 0.00 0.01 0.01 82 1014.0
20260503035145 62 340 0.0 0.0 0.00 0.01 0.01 81 1014.2
20260503034643 63 340 0.0 0.0 0.00 0.01 0.01 81 1014.2
20260503034139 63 340 0.0 0.0 0.00 0.01 0.01 80 1014.2
20260503033637 63 340 0.0 0.0 0.00 0.01 0.01 79 1014.4
20260503033134 64 291 1.7 1.7 0.00 0.01 0.01 79 1014.6
20260503032632 64 338 0.0 0.0 0.00 0.01 0.01 78 1014.2
20260503032131 64 334 0.0 0.0 0.00 0.01 0.01 77 1014.2
20260503031628 64 332 0.0 0.9 0.00 0.01 0.01 77 1014.0
20260503031125 64 330 0.9 0.9 0.00 0.01 0.01 76 1014.3
20260503030621 64 336 0.0 0.0 0.00 0.01 0.01 76 1014.4
20260503030118 64 332 0.0 0.9 0.00 0.01 0.01 75 1013.8
20260503025615 65 313 1.7 1.7 0.00 0.01 0.01 75 1013.8
20260503025113 65 337 0.0 0.0 0.00 0.01 0.01 75 1014.1
20260503024609 66 330 0.0 0.9 0.00 0.01 0.01 75 1014.0
20260503024106 66 339 0.9 1.7 0.00 0.01 0.01 74 1013.9
20260503023603 67 325 0.0 0.9 0.00 0.01 0.01 73 1013.9
20260503023100 68 304 1.7 2.6 0.00 0.01 0.01 71 1013.9
20260503022556 69 148 4.3 7.0 0.00 0.01 0.01 69 1014.1
20260503022051 69 274 1.7 2.6 0.00 0.01 0.01 67 1013.7
20260503021548 70 355 0.9 1.7 0.00 0.01 0.01 66 1013.7
20260503021045 70 340 0.9 1.7 0.00 0.01 0.01 65 1013.8
20260503020542 70 312 0.9 1.7 0.00 0.01 0.01 64 1013.6
20260503020039 71 341 0.0 0.0 0.00 0.01 0.01 64 1013.3
20260503015535 71 294 0.0 0.9 0.00 0.01 0.01 64 1013.1
20260503015033 71 329 0.0 0.0 0.00 0.01 0.01 63 1013.2
20260503014528 72 330 0.9 1.7 0.00 0.01 0.01 62 1013.2
20260503014027 72 323 0.9 0.9 0.00 0.01 0.01 62 1012.9
20260503013524 72 332 0.0 0.0 0.00 0.01 0.01 62 1012.8
20260503013022 72 330 0.0 0.9 0.00 0.01 0.01 60 1013.0
20260503012519 73 333 0.0 0.0 0.00 0.01 0.01 62 1013.0
20260503012015 73 333 0.0 0.0 0.00 0.01 0.01 60 1013.0
20260503011512 73 334 0.0 0.0 0.00 0.01 0.01 60 1013.0
20260503011009 74 325 0.0 0.9 0.00 0.01 0.01 59 1012.9
20260503010505 73 332 0.0 0.0 0.00 0.01 0.01 57 1013.0
20260503010003 74 338 0.0 0.0 0.00 0.01 0.01 57 1012.9
20260503005500 74 315 0.0 0.0 0.00 0.01 0.01 57 1013.0
20260503004956 74 335 1.7 1.7 0.00 0.01 0.01 56 1013.0
20260503004453 75 334 0.0 0.9 0.00 0.01 0.01 55 1013.1
20260503003951 75 330 0.0 0.9 0.00 0.01 0.01 54 1012.8
20260503003447 75 337 0.0 0.0 0.00 0.01 0.01 54 1012.9
20260503002944 75 326 0.9 0.9 0.00 0.01 0.01 54 1012.8
20260503002442 74 335 0.0 0.0 0.00 0.01 0.01 57 1013.2
20260503001938 73 339 0.0 0.0 0.00 0.01 0.01 57 1012.8
20260503001435 72 351 2.6 2.6 0.00 0.01 0.01 58 1013.2
20260503000932 74 329 0.9 1.7 0.00 0.01 0.01 57 1013.0
20260503000430 73 332 0.0 0.0 0.00 0.01 0.01 57 1013.2
20260502235926 73 352 1.7 1.7 0.00 0.01 0.01 57 1013.1
20260502235423 75 340 0.0 0.9 0.00 0.01 0.01 54 1013.1
20260502234920 74 312 0.9 0.9 0.00 0.01 0.01 55 1012.8
20260502234417 75 346 0.9 1.7 0.00 0.01 0.01 55 1013.4
20260502233914 74 344 1.7 1.7 0.00 0.01 0.01 57 1013.1
20260502233409 74 335 0.9 1.7 0.00 0.01 0.01 58 1013.2
20260502232907 72 335 0.0 0.9 0.00 0.01 0.01 58 1013.1
20260502232403 74 349 0.9 0.9 0.00 0.01 0.01 54 1013.3
20260502231900 74 327 2.6 2.6 0.00 0.01 0.01 58 1013.4
20260502231357 76 335 1.7 2.6 0.00 0.01 0.01 53 1013.5
20260502230855 74 331 0.0 0.9 0.00 0.01 0.01 55 1013.7
20260502230353 73 305 0.9 1.7 0.00 0.01 0.01 58 1013.4
20260502225850 72 358 4.3 7.8 0.00 0.01 0.01 58 1013.8
20260502225346 73 347 1.7 1.7 0.00 0.01 0.01 57 1013.8
20260502224844 72 325 0.9 1.7 0.00 0.01 0.01 57 1013.7
20260502224339 72 348 1.7 1.7 0.00 0.01 0.01 57 1013.9
20260502223837 75 328 2.6 2.6 0.00 0.01 0.01 54 1014.0
20260502223335 72 287 0.9 0.9 0.00 0.01 0.01 56 1014.0
20260502222832 71 334 1.7 1.7 0.00 0.01 0.01 59 1014.1
20260502222330 72 330 2.6 2.6 0.00 0.01 0.01 56 1014.4
20260502221825 73 309 0.9 0.9 0.00 0.01 0.01 54 1014.5
20260502221322 72 341 0.9 0.9 0.00 0.01 0.01 57 1014.6
20260502220820 75 297 2.6 2.6 0.00 0.01 0.01 53 1014.6
20260502220315 73 356 0.0 0.9 0.00 0.01 0.01 55 1014.6
20260502215812 73 357 1.7 2.6 0.00 0.01 0.01 56 1014.7
20260502215309 73 330 0.9 1.7 0.00 0.01 0.01 56 1014.9
20260502214806 75 271 2.6 2.6 0.00 0.01 0.01 53 1014.8
20260502214303 74 329 0.9 0.9 0.00 0.01 0.01 54 1014.8
20260502213800 72 307 1.7 1.7 0.00 0.01 0.01 57 1014.9
20260502213257 71 332 1.7 1.7 0.00 0.01 0.01 58 1015.2
20260502212756 72 336 0.9 0.9 0.00 0.01 0.01 57 1014.9
20260502212254 69 343 0.0 0.9 0.00 0.01 0.01 59 1015.0
20260502211749 68 342 0.9 0.9 0.00 0.01 0.01 63 1015.2
20260502211246 69 335 1.7 4.3 0.00 0.01 0.01 61 1015.2
20260502210744 72 344 1.7 1.7 0.00 0.01 0.01 57 1015.2
20260502210241 69 356 1.7 1.7 0.00 0.01 0.01 60 1015.7
20260502205738 69 341 1.7 1.7 0.00 0.01 0.01 61 1015.3
20260502205234 67 334 0.0 0.0 0.00 0.01 0.01 64 1015.7
20260502204731 69 330 0.9 1.7 0.00 0.01 0.01 61 1015.8
20260502204229 71 342 0.0 0.9 0.00 0.01 0.01 58 1015.9
20260502203726 69 335 0.9 1.7 0.00 0.01 0.01 60 1015.9
20260502203224 69 326 0.9 0.9 0.00 0.01 0.01 61 1016.0
20260502202718 67 24 1.7 2.6 0.00 0.01 0.01 63 1016.1
20260502202216 64 335 0.0 0.9 0.00 0.01 0.01 67 1016.0
20260502201714 65 358 1.7 2.6 0.00 0.01 0.01 68 1016.0
20260502201210 65 350 0.9 2.6 0.00 0.01 0.01 65 1016.3
20260502200706 65 324 0.9 0.9 0.00 0.01 0.01 64 1016.2
20260502200202 64 346 0.9 0.9 0.00 0.01 0.01 68 1016.4
20260502195701 65 252 1.7 1.7 0.00 0.01 0.01 66 1016.3
20260502195157 65 34 6.1 7.8 0.00 0.01 0.01 67 1016.5
20260502194654 65 334 0.0 0.9 0.00 0.01 0.01 65 1016.5
20260502194150 67 302 1.7 1.7 0.00 0.01 0.01 63 1016.6
20260502193647 67 351 0.9 0.9 0.00 0.01 0.01 62 1016.5
20260502193144 64 349 0.9 1.7 0.00 0.01 0.01 66 1016.8
20260502192639 64 4 0.9 1.7 0.00 0.01 0.01 68 1016.8
20260502192137 64 29 0.9 1.7 0.00 0.01 0.01 68 1016.9
20260502191634 64 317 0.9 0.9 0.00 0.01 0.01 66 1016.9
20260502191131 63 330 0.0 0.0 0.00 0.01 0.01 69 1016.9
20260502190628 63 341 0.9 0.9 0.00 0.01 0.01 70 1016.8
20260502190126 60 342 0.0 0.9 0.00 0.01 0.01 74 1017.0
20260502185620 59 326 0.9 1.7 0.00 0.01 0.01 77 1017.1
20260502185118 60 317 1.7 1.7 0.00 0.01 0.01 74 1016.9
20260502184614 59 311 1.7 1.7 0.00 0.01 0.01 75 1016.8
20260502184109 58 350 1.7 1.7 0.00 0.01 0.01 78 1016.9
20260502183606 58 332 0.0 0.0 0.00 0.01 0.01 79 1016.8
20260502183102 57 345 0.9 0.9 0.00 0.01 0.01 79 1016.9
20260502182557 57 337 0.9 0.9 0.00 0.01 0.01 80 1016.8
20260502182053 57 344 2.6 2.6 0.00 0.01 0.01 79 1016.8